Du Bois, PA

10:07 AM EST on December 07, 2019 (GMT -0500)
Du Bois-Jefferson County

Weather History for KDUJ - October, 2019

Change the Weather History Date:

Monday, October 14, 2019

  Actual Average Record
Temperature  
Mean Temperature 50 °F 50 °F  
Max Temperature 57 °F 59 °F 78 °F (1975)
Min Temperature 41 °F 40 °F 27 °F (1991)
Degree Days  
Heating Degree Days 16 16  
Month to date heating degree days 189  
Since 1 July heating degree days 435  
Cooling Degree Days 0 0  
Month to date cooling degree days 0  
Year to date cooling degree days 360  
Moisture  
Dew Point 36 °F    
Average Humidity 63    
Maximum Humidity 76    
Minimum Humidity 44    
Precipitation  
Precipitation 0.00 in 0.10 in 1.27 in (2003)
Month to date precipitation 1.45  
Year to date precipitation 34.69  
Sea Level Pressure  
Sea Level Pressure 30.00 in    
Wind  
Wind Speed 7 mph ()    
Max Wind Speed 17 mph    
Max Gust Speed 25 mph    
Visibility 10.0 miles    
Events      
T = Trace of Precipitation, MM = Missing Value Source: Averaged Metar Reports

Daily Weather History Graph

Daily Weather History Graph

Search for Another Location

Airport or City:

Astronomy

Oct. 14, 2019 Rise Set
Actual Time 7:25 AM EDT 6:36 PM EDT
Civil Twilight 6:58 AM EDT 7:04 PM EDT
Nautical Twilight 6:26 AM EDT 7:36 PM EDT
Astronomical Twilight 5:54 AM EDT 8:08 PM EDT
Moon 7:25 PM EDT (10/14) 7:55 AM EDT (10/14)
Length of Visible Light 12h 06m
Length of Day
11h 10m
Waxing Gibbous, 99% of the Moon is Illuminated
Oct 14
Waxing Gibbous
Oct 21
Last Quarter
Oct 27
New
Nov 4
First Quarter
Nov 12
Full

Hourly Weather History & Observations

Time (EDT) Temp. Windchill Dew Point Humidity Pressure Visibility Wind Dir Wind Speed Gust Speed Precip Events Conditions
12:53 AM 46.0 °F 44.8 °F 39.0 °F 76% 29.94 in 10.0 mi Variable 3.5 mph - N/A   Clear
1:53 AM 45.0 °F 41.2 °F 36.0 °F 71% 29.94 in 10.0 mi SW 6.9 mph - N/A   Clear
2:53 AM 45.0 °F 41.2 °F 33.1 °F 63% 29.93 in 10.0 mi SW 6.9 mph - N/A   Clear
3:53 AM 45.0 °F 40.6 °F 33.1 °F 63% 29.92 in 10.0 mi SW 8.1 mph - N/A   Clear
4:53 AM 46.0 °F 41.4 °F 34.0 °F 63% 29.91 in 10.0 mi SW 9.2 mph - N/A   Clear
5:53 AM 44.1 °F 40.1 °F 34.0 °F 68% 29.93 in 10.0 mi SW 6.9 mph - N/A   Clear
6:53 AM 43.0 °F 38.8 °F 34.0 °F 71% 29.95 in 10.0 mi SW 6.9 mph - N/A   Clear
7:53 AM 43.0 °F 38.8 °F 35.1 °F 74% 29.96 in 10.0 mi SW 6.9 mph - N/A   Clear
8:53 AM 46.9 °F - 37.0 °F 68% 29.98 in 10.0 mi SW 11.5 mph - N/A   Partly Cloudy
9:53 AM 48.9 °F - 37.9 °F 66% 30.00 in 10.0 mi WSW 12.7 mph - N/A   Clear
10:53 AM 51.1 °F - 39.9 °F 66% 30.01 in 10.0 mi West 9.2 mph - N/A   Clear
11:53 AM 55.0 °F - 39.0 °F 55% 30.00 in 10.0 mi West 16.1 mph - N/A   Scattered Clouds
12:53 PM 53.1 °F - 37.0 °F 55% 30.01 in 10.0 mi West 16.1 mph 23.0 mph N/A   Mostly Cloudy
1:53 PM 57.0 °F - 37.9 °F 49% 30.00 in 10.0 mi WSW 17.3 mph 25.3 mph N/A   Mostly Cloudy
2:53 PM 57.0 °F - 35.1 °F 44% 29.99 in 10.0 mi WSW 15.0 mph 23.0 mph N/A   Mostly Cloudy
3:53 PM 57.0 °F - 35.1 °F 44% 29.99 in 10.0 mi West 15.0 mph - N/A   Scattered Clouds
4:53 PM 55.0 °F - 36.0 °F 49% 30.01 in 10.0 mi West 10.4 mph - N/A   Mostly Cloudy
5:53 PM 53.1 °F - 35.1 °F 50% 30.03 in 10.0 mi West 10.4 mph - N/A   Mostly Cloudy
6:53 PM 50.0 °F - 35.1 °F 57% 30.05 in 10.0 mi West 6.9 mph - N/A   Clear
7:53 PM 46.9 °F - 35.1 °F 63% 30.07 in 10.0 mi NNW 5.8 mph - N/A   Clear
8:53 PM 45.0 °F 41.8 °F 36.0 °F 71% 30.09 in 10.0 mi North 5.8 mph - N/A   Clear
9:53 PM 43.0 °F 40.3 °F 35.1 °F 74% 30.11 in 10.0 mi North 4.6 mph - N/A   Clear
10:53 PM 42.1 °F - 35.1 °F 76% 30.12 in 10.0 mi Calm Calm - N/A   Clear
11:53 PM 41.0 °F - 34.0 °F 76% 30.12 in 10.0 mi Calm Calm - N/A   Clear